Weather in Karagach

Russia / Orenburg Oblast     51°14′47″N   56°24′59″E
temp.,
°C
wind,
m/s
gust,
m/s
humid.,
%
clouds,
%
prec.,
mm/h
press.,
hPa
HPBL,
m
1 march, mon
mon123:00−14wsw5894100 1.1 1010253
02:00−15sw4795100 0.1 1012240
05:00−16sw369699 0.1 1014182
08:00−16sw369699 0.2 1016154
11:00−14wsw459497 0.4 1017258
14:00−13wsw4592100 0.1 1018346
17:00−12wsw4693100 0.3 1019411
20:00−13wsw379696 0.2 1020196
2 march, tue
tue223:00−16w349793 0.3 102174
02:00−19w349896 0.0 102157
05:00−21wsw349998 0.1 102275
08:00−23wsw3498100 0.0 102261
11:00−20sw469694 0.1 1022243
14:00−15ssw6993100 0.0 1019379
17:00−12ssw71391100 0.0 1017483
20:00−8sw91591100 0.3 1014623
3 march, wed
wed323:00−5sw91592100 0.7 1011756
02:00−4sw91592100 0.4 1008822
05:00−3sw91594100 1.0 1007829
08:00−3sw81495100 0.8 1005755
11:00−2sw81394100 1.4 1005760
14:00−1sw71196100 0.7 1004738
17:000sw6997100 1.5 1003647
20:00−1sw4997100 0.9 1003391
4 march, thu
thu423:00−2w4698100 2.0 1004237
02:00−5nw5895100 0.7 1004274
05:00−10wnw339799 0.8 100657
08:00−10w3796100 0.2 1008157
11:00−9wnw599499 0.4 1011382
14:00−8w5891100 0.1 1012491
17:00−8wsw51092100 0.1 1014452
20:00−10sw7149384 0.0 1015373
5 march, fri
fri523:00−7sw7149292 0.1 1015514
02:00−4sw9169199 0.3 1012858
05:00−3sw10179099 0.4 1012895
08:00−3sw112085100 0.1 1011736
11:00−3sw112085100 0.1 1012812
14:00−1sw121787100 0.0 1012986
17:00−1sw101692100 0.2 1013958
20:00−1sw71492100 0.2 1014686